Time,TemperatureF,DewpointF,PressureIn,WindDirection,WindDirectionDegrees,WindSpeedMPH,WindSpeedGustMPH,Humidity,HourlyPrecipIn,Conditions,Clouds,dailyrainin,SolarRadiationWatts/m^2,SoftwareType,DateUTC
2013-02-04 00:01:00,66.0,60.0,-100.00,NE,37,3.0,6.0,82,0.00,,,0.00,0.000000,,2013-02-04 10:01:00,
2013-02-04 00:11:00,66.0,60.0,-100.00,NE,37,3.0,6.0,82,0.00,,,0.00,0.000000,,2013-02-04 10:11:00,
2013-02-04 00:21:00,66.0,60.0,-100.00,NE,37,3.0,6.0,82,0.00,,,0.00,0.000000,,2013-02-04 10:21:00,
2013-02-04 00:32:00,66.0,60.0,-100.00,NE,37,3.0,6.0,82,0.00,,,0.00,0.000000,,2013-02-04 10:32:00,
2013-02-04 00:52:00,65.0,58.0,-100.00,NNE,15,3.0,5.0,78,0.00,,,0.00,0.000000,,2013-02-04 10:52:00,
2013-02-04 01:01:00,65.0,58.0,-100.00,NNE,15,3.0,5.0,78,0.00,,,0.00,0.000000,,2013-02-04 11:01:00,
2013-02-04 01:11:00,65.0,58.0,-100.00,NNE,15,3.0,5.0,78,0.00,,,0.00,0.000000,,2013-02-04 11:11:00,
2013-02-04 01:22:00,65.0,58.0,-100.00,NNE,15,3.0,5.0,78,0.00,,,0.00,0.000000,,2013-02-04 11:22:00,
2013-02-04 01:32:00,65.0,58.0,-100.00,NNE,15,3.0,5.0,78,0.00,,,0.00,0.000000,,2013-02-04 11:32:00,
2013-02-04 01:52:00,65.0,56.0,-100.00,North,4,4.0,6.0,72,0.00,,,0.00,0.000000,,2013-02-04 11:52:00,
2013-02-04 02:02:00,65.0,56.0,-100.00,North,4,4.0,6.0,72,0.00,,,0.00,0.000000,,2013-02-04 12:02:00,
2013-02-04 02:12:00,65.0,56.0,-100.00,North,4,4.0,6.0,72,0.00,,,0.00,0.000000,,2013-02-04 12:12:00,
2013-02-04 02:21:00,65.0,56.0,-100.00,North,4,4.0,6.0,72,0.00,,,0.00,0.000000,,2013-02-04 12:21:00,
2013-02-04 02:32:00,65.0,56.0,-100.00,North,4,4.0,6.0,72,0.00,,,0.00,0.000000,,2013-02-04 12:32:00,
2013-02-04 03:02:00,65.0,58.0,-100.00,North,5,3.0,6.0,79,0.00,,,0.00,0.000000,,2013-02-04 13:02:00,
2013-02-04 03:11:00,65.0,58.0,-100.00,North,5,3.0,6.0,79,0.00,,,0.00,0.000000,,2013-02-04 13:11:00,
2013-02-04 03:21:00,65.0,58.0,-100.00,North,5,3.0,6.0,79,0.00,,,0.00,0.000000,,2013-02-04 13:21:00,
2013-02-04 03:32:00,65.0,58.0,-100.00,North,5,3.0,6.0,79,0.00,,,0.00,0.000000,,2013-02-04 13:32:00,
2013-02-04 03:52:00,64.0,58.0,-100.00,NE,48,3.0,5.0,82,0.00,,,0.00,0.000000,,2013-02-04 13:52:00,
2013-02-04 04:02:00,64.0,58.0,-100.00,NE,48,3.0,5.0,82,0.00,,,0.00,0.000000,,2013-02-04 14:02:00,
2013-02-04 04:11:00,64.0,58.0,-100.00,NE,48,3.0,5.0,82,0.00,,,0.00,0.000000,,2013-02-04 14:11:00,
2013-02-04 04:21:00,64.0,58.0,-100.00,NE,48,3.0,5.0,82,0.00,,,0.00,0.000000,,2013-02-04 14:21:00,
2013-02-04 04:32:00,64.0,58.0,-100.00,NE,48,3.0,5.0,82,0.00,,,0.00,0.000000,,2013-02-04 14:32:00,
2013-02-04 04:52:00,64.0,57.0,-100.00,North,6,3.0,5.0,77,0.00,,,0.00,0.000000,,2013-02-04 14:52:00,
2013-02-04 05:03:00,64.0,57.0,-100.00,North,6,3.0,5.0,77,0.00,,,0.00,0.000000,,2013-02-04 15:03:00,
2013-02-04 05:12:00,64.0,57.0,-100.00,North,6,3.0,5.0,77,0.00,,,0.00,0.000000,,2013-02-04 15:12:00,
2013-02-04 05:23:00,64.0,57.0,-100.00,North,6,3.0,5.0,77,0.00,,,0.00,0.000000,,2013-02-04 15:23:00,
2013-02-04 05:33:00,64.0,57.0,-100.00,North,6,3.0,5.0,77,0.00,,,0.00,0.000000,,2013-02-04 15:33:00,
2013-02-04 06:02:00,64.0,56.0,-100.00,North,4,5.0,7.0,75,0.00,,,0.00,0.000000,,2013-02-04 16:02:00,
2013-02-04 06:11:00,64.0,56.0,-100.00,North,4,5.0,7.0,75,0.00,,,0.00,0.000000,,2013-02-04 16:11:00,
2013-02-04 06:22:00,64.0,56.0,-100.00,North,4,5.0,7.0,75,0.00,,,0.00,0.000000,,2013-02-04 16:22:00,
2013-02-04 06:32:00,64.0,56.0,-100.00,North,4,5.0,7.0,75,0.00,,,0.00,0.000000,,2013-02-04 16:32:00,
2013-02-04 08:03:00,64.0,57.0,-100.00,WNW,301,5.0,7.0,78,-99.99,,,0.00,7.000000,,2013-02-04 18:03:00,
2013-02-04 08:11:00,64.0,57.0,-100.00,WNW,301,5.0,7.0,78,-99.99,,,0.00,7.000000,,2013-02-04 18:11:00,
2013-02-04 08:22:00,64.0,57.0,-100.00,WNW,301,5.0,7.0,78,-99.99,,,0.00,7.000000,,2013-02-04 18:22:00,
2013-02-04 08:31:00,64.0,57.0,-100.00,WNW,301,5.0,7.0,78,-99.99,,,0.00,7.000000,,2013-02-04 18:31:00,
2013-02-04 09:02:00,71.0,62.0,-100.00,ENE,74,4.0,8.0,74,0.00,,,0.00,165.000000,,2013-02-04 19:02:00,
2013-02-04 09:11:00,71.0,62.0,-100.00,ENE,74,4.0,8.0,74,0.00,,,0.00,165.000000,,2013-02-04 19:11:00,
2013-02-04 09:22:00,71.0,62.0,-100.00,ENE,74,4.0,8.0,74,0.00,,,0.00,165.000000,,2013-02-04 19:22:00,
2013-02-04 09:31:00,71.0,62.0,-100.00,ENE,74,4.0,8.0,74,0.00,,,0.00,165.000000,,2013-02-04 19:31:00,
2013-02-04 10:02:00,75.0,62.0,-100.00,SW,229,5.0,7.0,64,0.00,,,0.00,480.000000,,2013-02-04 20:02:00,
2013-02-04 10:12:00,75.0,62.0,-100.00,SW,229,5.0,7.0,64,0.00,,,0.00,480.000000,,2013-02-04 20:12:00,
2013-02-04 10:21:00,75.0,62.0,-100.00,SW,229,5.0,7.0,64,0.00,,,0.00,480.000000,,2013-02-04 20:21:00,
2013-02-04 10:31:00,75.0,62.0,-100.00,SW,229,5.0,7.0,64,0.00,,,0.00,480.000000,,2013-02-04 20:31:00,
2013-02-04 10:52:00,80.0,64.0,-100.00,WSW,258,6.0,12.0,58,0.00,,,0.00,748.000000,,2013-02-04 20:52:00,
2013-02-04 11:02:00,80.0,64.0,-100.00,WSW,258,6.0,12.0,58,0.00,,,0.00,748.000000,,2013-02-04 21:02:00,
2013-02-04 11:11:00,80.0,64.0,-100.00,WSW,258,6.0,12.0,58,0.00,,,0.00,748.000000,,2013-02-04 21:11:00,
2013-02-04 11:22:00,80.0,64.0,-100.00,WSW,258,6.0,12.0,58,0.00,,,0.00,748.000000,,2013-02-04 21:22:00,
2013-02-04 11:31:00,80.0,64.0,-100.00,WSW,258,6.0,12.0,58,0.00,,,0.00,748.000000,,2013-02-04 21:31:00,
2013-02-04 11:52:00,81.0,60.0,-100.00,WSW,256,8.0,11.0,49,0.00,,,0.00,934.000000,,2013-02-04 21:52:00,
2013-02-04 12:02:00,81.0,60.0,-100.00,WSW,256,8.0,11.0,49,0.00,,,0.00,934.000000,,2013-02-04 22:02:00,
2013-02-04 12:12:00,81.0,60.0,-100.00,WSW,256,8.0,11.0,49,0.00,,,0.00,934.000000,,2013-02-04 22:12:00,
2013-02-04 12:21:00,81.0,60.0,-100.00,WSW,256,8.0,11.0,49,0.00,,,0.00,934.000000,,2013-02-04 22:21:00,
2013-02-04 12:32:00,81.0,60.0,-100.00,WSW,256,8.0,11.0,49,0.00,,,0.00,934.000000,,2013-02-04 22:32:00,
2013-02-04 13:01:00,83.0,61.0,-100.00,West,275,7.0,13.0,48,0.00,,,0.00,1024.000000,,2013-02-04 23:01:00,
2013-02-04 13:11:00,83.0,61.0,-100.00,West,275,7.0,13.0,48,0.00,,,0.00,1024.000000,,2013-02-04 23:11:00,
2013-02-04 13:21:00,83.0,61.0,-100.00,West,275,7.0,13.0,48,0.00,,,0.00,1024.000000,,2013-02-04 23:21:00,
2013-02-04 13:32:00,83.0,61.0,-100.00,West,275,7.0,13.0,48,0.00,,,0.00,1024.000000,,2013-02-04 23:32:00,
2013-02-04 14:01:00,82.0,60.0,-100.00,West,265,6.0,13.0,47,0.00,,,0.00,1031.000000,,2013-02-05 00:01:00,
2013-02-04 14:11:00,82.0,60.0,-100.00,West,265,6.0,13.0,47,0.00,,,0.00,1031.000000,,2013-02-05 00:11:00,
2013-02-04 14:21:00,82.0,60.0,-100.00,West,265,6.0,13.0,47,0.00,,,0.00,1031.000000,,2013-02-05 00:21:00,
2013-02-04 14:31:00,82.0,60.0,-100.00,West,265,6.0,13.0,47,0.00,,,0.00,1031.000000,,2013-02-05 00:31:00,
2013-02-04 15:01:00,84.0,60.0,-100.00,West,267,7.0,15.0,45,0.00,,,0.00,962.000000,,2013-02-05 01:01:00,
2013-02-04 15:11:00,84.0,60.0,-100.00,West,267,7.0,15.0,45,0.00,,,0.00,962.000000,,2013-02-05 01:11:00,
2013-02-04 15:21:00,84.0,60.0,-100.00,West,267,7.0,15.0,45,0.00,,,0.00,962.000000,,2013-02-05 01:21:00,
2013-02-04 15:32:00,84.0,60.0,-100.00,West,267,7.0,15.0,45,0.00,,,0.00,962.000000,,2013-02-05 01:32:00,
2013-02-04 16:01:00,82.0,59.0,-100.00,WSW,250,8.0,13.0,46,0.00,,,0.00,807.000000,,2013-02-05 02:01:00,
2013-02-04 16:11:00,82.0,59.0,-100.00,WSW,250,8.0,13.0,46,0.00,,,0.00,807.000000,,2013-02-05 02:11:00,
2013-02-04 16:21:00,82.0,59.0,-100.00,WSW,250,8.0,13.0,46,0.00,,,0.00,807.000000,,2013-02-05 02:21:00,
2013-02-04 16:31:00,82.0,59.0,-100.00,WSW,250,8.0,13.0,46,0.00,,,0.00,807.000000,,2013-02-05 02:31:00,
2013-02-04 16:52:00,80.0,58.0,-100.00,SW,225,7.0,13.0,47,0.00,,,0.00,588.000000,,2013-02-05 02:52:00,
2013-02-04 17:01:00,80.0,58.0,-100.00,SW,225,7.0,13.0,47,0.00,,,0.00,588.000000,,2013-02-05 03:01:00,
2013-02-04 17:11:00,80.0,58.0,-100.00,SW,225,7.0,13.0,47,0.00,,,0.00,588.000000,,2013-02-05 03:11:00,
2013-02-04 17:21:00,80.0,58.0,-100.00,SW,225,7.0,13.0,47,0.00,,,0.00,588.000000,,2013-02-05 03:21:00,
2013-02-04 17:31:00,80.0,58.0,-100.00,SW,225,7.0,13.0,47,0.00,,,0.00,588.000000,,2013-02-05 03:31:00,
2013-02-04 18:01:00,77.0,58.0,-100.00,West,260,6.0,11.0,52,0.00,,,0.00,324.000000,,2013-02-05 04:01:00,
2013-02-04 18:11:00,77.0,58.0,-100.00,West,260,6.0,11.0,52,0.00,,,0.00,324.000000,,2013-02-05 04:11:00,
2013-02-04 18:21:00,77.0,58.0,-100.00,West,260,6.0,11.0,52,0.00,,,0.00,324.000000,,2013-02-05 04:21:00,
2013-02-04 18:31:00,77.0,58.0,-100.00,West,260,6.0,11.0,52,0.00,,,0.00,324.000000,,2013-02-05 04:31:00,
2013-02-04 18:52:00,71.0,57.0,-100.00,WNW,284,6.0,9.0,61,0.00,,,0.00,67.000000,,2013-02-05 04:52:00,
2013-02-04 19:02:00,71.0,57.0,-100.00,WNW,284,6.0,9.0,61,0.00,,,0.00,67.000000,,2013-02-05 05:02:00,
2013-02-04 19:11:00,71.0,57.0,-100.00,WNW,284,6.0,9.0,61,0.00,,,0.00,67.000000,,2013-02-05 05:11:00,
2013-02-04 19:21:00,71.0,57.0,-100.00,WNW,284,6.0,9.0,61,0.00,,,0.00,67.000000,,2013-02-05 05:21:00,
2013-02-04 19:31:00,71.0,57.0,-100.00,WNW,284,6.0,9.0,61,0.00,,,0.00,67.000000,,2013-02-05 05:31:00,
2013-02-04 20:01:00,69.0,57.0,-100.00,West,276,6.0,10.0,65,0.00,,,0.00,0.000000,,2013-02-05 06:01:00,
2013-02-04 20:11:00,69.0,57.0,-100.00,West,276,6.0,10.0,65,0.00,,,0.00,0.000000,,2013-02-05 06:11:00,
2013-02-04 20:21:00,69.0,57.0,-100.00,West,276,6.0,10.0,65,0.00,,,0.00,0.000000,,2013-02-05 06:21:00,
2013-02-04 20:31:00,69.0,57.0,-100.00,West,276,6.0,10.0,65,0.00,,,0.00,0.000000,,2013-02-05 06:31:00,
2013-02-04 21:01:00,68.0,57.0,-100.00,NW,323,5.0,9.0,68,0.00,,,0.00,0.000000,,2013-02-05 07:01:00,
2013-02-04 21:11:00,68.0,57.0,-100.00,NW,323,5.0,9.0,68,0.00,,,0.00,0.000000,,2013-02-05 07:11:00,
2013-02-04 21:22:00,68.0,57.0,-100.00,NW,323,5.0,9.0,68,0.00,,,0.00,0.000000,,2013-02-05 07:22:00,
2013-02-04 21:31:00,68.0,57.0,-100.00,NW,323,5.0,9.0,68,0.00,,,0.00,0.000000,,2013-02-05 07:31:00,
2013-02-04 22:01:00,68.0,59.0,-100.00,NW,316,1.0,7.0,73,0.00,,,0.00,0.000000,,2013-02-05 08:01:00,
2013-02-04 22:11:00,68.0,59.0,-100.00,NW,316,1.0,7.0,73,0.00,,,0.00,0.000000,,2013-02-05 08:11:00,
2013-02-04 22:21:00,68.0,59.0,-100.00,NW,316,1.0,7.0,73,0.00,,,0.00,0.000000,,2013-02-05 08:21:00,
2013-02-04 22:31:00,68.0,59.0,-100.00,NW,316,1.0,7.0,73,0.00,,,0.00,0.000000,,2013-02-05 08:31:00,
2013-02-04 22:52:00,68.0,59.0,-100.00,NE,34,4.0,10.0,72,0.00,,,0.00,0.000000,,2013-02-05 08:52:00,
2013-02-04 23:02:00,68.0,59.0,-100.00,NE,34,4.0,10.0,72,0.00,,,0.00,0.000000,,2013-02-05 09:02:00,
2013-02-04 23:11:00,68.0,59.0,-100.00,NE,34,4.0,10.0,72,0.00,,,0.00,0.000000,,2013-02-05 09:11:00,
2013-02-04 23:21:00,68.0,59.0,-100.00,NE,34,4.0,10.0,72,0.00,,,0.00,0.000000,,2013-02-05 09:21:00,
2013-02-04 23:31:00,68.0,59.0,-100.00,NE,34,4.0,10.0,72,0.00,,,0.00,0.000000,,2013-02-05 09:31:00,
2013-02-04 23:52:00,69.0,59.0,-100.00,ENE,66,4.0,10.0,71,0.00,,,0.00,0.000000,,2013-02-05 09:52:00,